| time (UTC) | temp F | wind direction | speed knots | gust knots | rain 1hr in | rain 24hr in | rain mn in | humidity % | barometer mb |
| 20260509224425 | 53 | 161 | 2.6 | 4.3 | 0.00 | 0.00 | 0.00 | 87 | 1002.3 |
| 20260509223923 | 52 | 118 | 5.2 | 5.2 | 0.00 | 0.00 | 0.00 | 88 | 1002.6 |
| 20260509223419 | 52 | 123 | 3.5 | 4.3 | 0.00 | 0.00 | 0.00 | 88 | 1002.6 |
| 20260509222917 | 51 | 114 | 3.5 | 6.1 | 0.00 | 0.00 | 0.00 | 88 | 1002.9 |
| 20260509222412 | 51 | 96 | 5.2 | 6.1 | 0.00 | 0.00 | 0.00 | 89 | 1003.0 |
| 20260509221907 | 50 | 97 | 7.0 | 8.7 | 0.00 | 0.00 | 0.00 | 89 | 1002.9 |
| 20260509221405 | 50 | 86 | 6.1 | 7.0 | 0.00 | 0.00 | 0.00 | 88 | 1003.0 |
| 20260509220900 | 50 | 93 | 7.0 | 8.7 | 0.00 | 0.00 | 0.00 | 88 | 1002.9 |
| 20260509220356 | 50 | 89 | 6.1 | 7.8 | 0.00 | 0.00 | 0.00 | 87 | 1003.2 |
| 20260509215852 | 50 | 96 | 6.1 | 7.0 | 0.00 | 0.00 | 0.00 | 87 | 1003.2 |
| 20260509215349 | 50 | 89 | 3.5 | 4.3 | 0.00 | 0.00 | 0.00 | 87 | 1003.5 |
| 20260509214846 | 50 | 91 | 4.3 | 5.2 | 0.00 | 0.00 | 0.00 | 86 | 1003.2 |
| 20260509214343 | 50 | 91 | 5.2 | 5.2 | 0.00 | 0.00 | 0.00 | 88 | 1003.4 |
| 20260509213840 | 50 | 93 | 5.2 | 6.1 | 0.00 | 0.00 | 0.00 | 87 | 1003.2 |
| 20260509213335 | 50 | 79 | 2.6 | 2.6 | 0.00 | 0.00 | 0.00 | 87 | 1003.2 |
| 20260509212833 | 50 | 91 | 4.3 | 5.2 | 0.00 | 0.00 | 0.00 | 88 | 1003.2 |
| 20260509212331 | 50 | 89 | 6.1 | 7.0 | 0.00 | 0.00 | 0.00 | 87 | 1003.3 |
| 20260509211826 | 50 | 88 | 5.2 | 5.2 | 0.00 | 0.00 | 0.00 | 87 | 1003.4 |
| 20260509211322 | 50 | 97 | 5.2 | 6.1 | 0.00 | 0.00 | 0.00 | 88 | 1003.2 |
| 20260509210819 | 50 | 83 | 6.1 | 7.0 | 0.00 | 0.00 | 0.00 | 88 | 1003.3 |
| 20260509210317 | 50 | 86 | 6.1 | 7.0 | 0.00 | 0.00 | 0.00 | 87 | 1003.2 |
| 20260509205817 | 50 | 85 | 4.3 | 5.2 | 0.00 | 0.00 | 0.00 | 87 | 1003.4 |
| 20260509205312 | 50 | 70 | 3.5 | 4.3 | 0.00 | 0.00 | 0.00 | 87 | 1003.6 |
| 20260509204808 | 50 | 81 | 6.1 | 7.0 | 0.00 | 0.00 | 0.00 | 88 | 1003.5 |
| 20260509204304 | 50 | 85 | 7.0 | 7.8 | 0.00 | 0.00 | 0.00 | 87 | 1003.4 |
| 20260509203800 | 50 | 84 | 7.0 | 8.7 | 0.00 | 0.00 | 0.00 | 87 | 1003.2 |
| 20260509203258 | 50 | 86 | 7.0 | 7.8 | 0.00 | 0.00 | 0.00 | 86 | 1003.4 |
| 20260509202754 | 50 | 64 | 6.1 | 7.0 | 0.00 | 0.00 | 0.00 | 86 | 1003.6 |
| 20260509202250 | 51 | 65 | 5.2 | 7.0 | 0.00 | 0.00 | 0.00 | 86 | 1003.0 |
| 20260509201750 | 51 | 84 | 6.1 | 7.0 | 0.00 | 0.00 | 0.00 | 87 | 1003.1 |
| 20260509201247 | 51 | 92 | 8.7 | 9.6 | 0.00 | 0.00 | 0.00 | 86 | 1003.4 |
| 20260509200743 | 51 | 97 | 9.6 | 10.4 | 0.00 | 0.00 | 0.00 | 85 | 1003.2 |
| 20260509200244 | 51 | 93 | 8.7 | 10.4 | 0.00 | 0.00 | 0.00 | 85 | 1003.4 |
| 20260509195740 | 51 | 86 | 9.6 | 11.3 | 0.00 | 0.00 | 0.00 | 85 | 1003.6 |
| 20260509195235 | 51 | 92 | 7.8 | 8.7 | 0.00 | 0.00 | 0.00 | 85 | 1003.6 |
| 20260509194730 | 51 | 92 | 7.0 | 8.7 | 0.00 | 0.00 | 0.00 | 87 | 1003.7 |
| 20260509194227 | 52 | 82 | 7.0 | 8.7 | 0.00 | 0.00 | 0.00 | 84 | 1003.8 |
| 20260509193724 | 52 | 89 | 7.8 | 7.8 | 0.00 | 0.00 | 0.00 | 85 | 1003.9 |
| 20260509193223 | 53 | 92 | 6.1 | 7.8 | 0.00 | 0.00 | 0.00 | 83 | 1003.9 |
| 20260509192720 | 53 | 94 | 8.7 | 10.4 | 0.00 | 0.00 | 0.00 | 83 | 1004.1 |
| 20260509192215 | 53 | 91 | 7.8 | 8.7 | 0.00 | 0.00 | 0.00 | 84 | 1004.3 |
| 20260509191710 | 53 | 93 | 7.8 | 9.6 | 0.00 | 0.00 | 0.00 | 84 | 1004.2 |
| 20260509191207 | 53 | 100 | 7.8 | 8.7 | 0.00 | 0.00 | 0.00 | 84 | 1004.4 |
| 20260509190703 | 52 | 92 | 7.8 | 10.4 | 0.00 | 0.00 | 0.00 | 86 | 1004.4 |
| 20260509190200 | 51 | 92 | 9.6 | 9.6 | 0.00 | 0.00 | 0.00 | 87 | 1004.3 |
| 20260509185658 | 51 | 88 | 7.8 | 9.6 | 0.00 | 0.00 | 0.00 | 86 | 1004.4 |
| 20260509185154 | 51 | 92 | 7.8 | 9.6 | 0.00 | 0.00 | 0.00 | 86 | 1004.6 |
| 20260509184652 | 52 | 88 | 7.8 | 9.6 | 0.00 | 0.00 | 0.00 | 85 | 1004.4 |
| 20260509184148 | 52 | 91 | 9.6 | 11.3 | 0.00 | 0.00 | 0.00 | 84 | 1004.3 |
| 20260509183645 | 52 | 100 | 7.8 | 13.0 | 0.00 | 0.00 | 0.00 | 84 | 1004.3 |
| 20260509183140 | 52 | 96 | 11.3 | 13.9 | 0.00 | 0.00 | 0.00 | 83 | 1004.4 |
| 20260509182636 | 52 | 96 | 10.4 | 13.0 | 0.00 | 0.00 | 0.00 | 85 | 1004.5 |
| 20260509182133 | 52 | 86 | 8.7 | 11.3 | 0.00 | 0.00 | 0.00 | 85 | 1004.9 |
| 20260509181631 | 51 | 91 | 9.6 | 12.2 | 0.00 | 0.00 | 0.00 | 85 | 1005.0 |
| 20260509181129 | 51 | 85 | 7.8 | 9.6 | 0.00 | 0.00 | 0.00 | 86 | 1005.1 |
| 20260509180625 | 51 | 88 | 7.8 | 9.6 | 0.00 | 0.00 | 0.00 | 86 | 1005.1 |
| 20260509180122 | 52 | 91 | 7.8 | 9.6 | 0.00 | 0.00 | 0.00 | 84 | 1005.2 |
| 20260509175617 | 52 | 91 | 7.8 | 10.4 | 0.00 | 0.00 | 0.00 | 85 | 1005.0 |
| 20260509175114 | 52 | 92 | 8.7 | 10.4 | 0.00 | 0.00 | 0.00 | 85 | 1005.2 |
| 20260509174611 | 51 | 88 | 7.8 | 8.7 | 0.00 | 0.00 | 0.00 | 85 | 1005.2 |
| 20260509174106 | 52 | 91 | 7.0 | 8.7 | 0.00 | 0.00 | 0.00 | 84 | 1005.3 |
| 20260509173601 | 52 | 91 | 8.7 | 10.4 | 0.00 | 0.00 | 0.00 | 84 | 1005.2 |
| 20260509173057 | 52 | 89 | 10.4 | 12.2 | 0.00 | 0.00 | 0.00 | 84 | 1005.4 |
| 20260509172555 | 52 | 89 | 9.6 | 11.3 | 0.00 | 0.00 | 0.00 | 85 | 1005.3 |
| 20260509172050 | 52 | 88 | 8.7 | 11.3 | 0.00 | 0.00 | 0.00 | 85 | 1005.4 |
| 20260509171546 | 52 | 89 | 9.6 | 10.4 | 0.00 | 0.00 | 0.00 | 86 | 1005.3 |
| 20260509171043 | 51 | 88 | 7.0 | 8.7 | 0.00 | 0.00 | 0.00 | 86 | 1005.5 |
| 20260509170539 | 51 | 84 | 8.7 | 10.4 | 0.00 | 0.00 | 0.00 | 86 | 1005.6 |
| 20260509170035 | 51 | 91 | 7.8 | 9.6 | 0.00 | 0.00 | 0.00 | 85 | 1005.6 |
| 20260509165534 | 51 | 85 | 8.7 | 9.6 | 0.00 | 0.00 | 0.00 | 85 | 1005.7 |
| 20260509165029 | 51 | 87 | 8.7 | 9.6 | 0.00 | 0.00 | 0.00 | 85 | 1005.7 |
| 20260509164526 | 51 | 92 | 7.0 | 9.6 | 0.00 | 0.00 | 0.00 | 84 | 1005.7 |
| 20260509164021 | 52 | 94 | 8.7 | 10.4 | 0.00 | 0.00 | 0.00 | 84 | 1005.8 |
| 20260509163519 | 52 | 92 | 8.7 | 10.4 | 0.00 | 0.00 | 0.00 | 84 | 1005.9 |
| 20260509163014 | 52 | 88 | 9.6 | 13.0 | 0.00 | 0.00 | 0.00 | 84 | 1005.8 |
| 20260509162512 | 52 | 91 | 12.2 | 13.9 | 0.00 | 0.00 | 0.00 | 83 | 1005.7 |
| 20260509162008 | 52 | 98 | 8.7 | 13.0 | 0.00 | 0.00 | 0.00 | 83 | 1005.8 |
| 20260509161504 | 52 | 95 | 7.0 | 12.2 | 0.00 | 0.00 | 0.00 | 85 | 1005.8 |
| 20260509160959 | 52 | 96 | 9.6 | 13.0 | 0.00 | 0.00 | 0.00 | 83 | 1005.9 |
| 20260509160455 | 52 | 94 | 11.3 | 12.2 | 0.00 | 0.00 | 0.00 | 85 | 1006.0 |
| 20260509155956 | 52 | 95 | 8.7 | 12.2 | 0.00 | 0.00 | 0.00 | 85 | 1006.2 |
| 20260509155453 | 51 | 92 | 7.8 | 8.7 | 0.00 | 0.00 | 0.00 | 86 | 1006.4 |
| 20260509154949 | 51 | 96 | 7.8 | 8.7 | 0.00 | 0.00 | 0.00 | 87 | 1006.5 |
| 20260509154445 | 51 | 84 | 8.7 | 8.7 | 0.00 | 0.00 | 0.00 | 86 | 1006.5 |
| 20260509153943 | 51 | 87 | 6.1 | 6.1 | 0.00 | 0.00 | 0.00 | 86 | 1006.5 |
| 20260509153439 | 51 | 87 | 5.2 | 7.8 | 0.00 | 0.00 | 0.00 | 85 | 1006.5 |
| 20260509152937 | 51 | 91 | 9.6 | 10.4 | 0.00 | 0.00 | 0.00 | 84 | 1006.5 |
| 20260509152432 | 51 | 91 | 7.8 | 10.4 | 0.00 | 0.00 | 0.00 | 85 | 1006.6 |
| 20260509151930 | 51 | 92 | 7.8 | 11.3 | 0.00 | 0.00 | 0.00 | 86 | 1006.6 |
| 20260509151426 | 51 | 91 | 8.7 | 11.3 | 0.00 | 0.00 | 0.00 | 85 | 1006.5 |
| 20260509150924 | 51 | 86 | 8.7 | 11.3 | 0.00 | 0.00 | 0.00 | 85 | 1006.6 |
| 20260509150421 | 52 | 96 | 8.7 | 11.3 | 0.00 | 0.00 | 0.00 | 85 | 1006.4 |
| 20260509145919 | 52 | 99 | 7.8 | 9.6 | 0.00 | 0.00 | 0.00 | 85 | 1006.6 |
| 20260509145419 | 52 | 96 | 7.8 | 9.6 | 0.00 | 0.00 | 0.00 | 84 | 1006.5 |
| 20260509144915 | 52 | 93 | 7.8 | 8.7 | 0.00 | 0.00 | 0.00 | 84 | 1006.6 |
| 20260509144412 | 52 | 98 | 5.2 | 7.0 | 0.00 | 0.00 | 0.00 | 85 | 1006.7 |
| 20260509143909 | 52 | 99 | 7.8 | 9.6 | 0.00 | 0.00 | 0.00 | 84 | 1006.8 |
| 20260509143407 | 53 | 82 | 8.7 | 9.6 | 0.00 | 0.00 | 0.00 | 80 | 1006.8 |
| 20260509142902 | 56 | 79 | 7.8 | 8.7 | 0.00 | 0.00 | 0.00 | 74 | 1006.9 |
| 20260509142359 | 61 | 314 | 0.9 | 2.6 | 0.00 | 0.00 | 0.00 | 65 | 1006.7 |
| 20260509141854 | 61 | 102 | 2.6 | 3.5 | 0.00 | 0.00 | 0.00 | 65 | 1006.9 |
| 20260509141352 | 60 | 98 | 2.6 | 3.5 | 0.00 | 0.00 | 0.00 | 69 | 1007.0 |
| 20260509140848 | 60 | 186 | 2.6 | 3.5 | 0.00 | 0.00 | 0.00 | 67 | 1006.8 |
| 20260509140345 | 60 | 108 | 2.6 | 3.5 | 0.00 | 0.00 | 0.00 | 70 | 1006.9 |
| 20260509135843 | 60 | 116 | 2.6 | 3.5 | 0.00 | 0.00 | 0.00 | 68 | 1007.0 |
| 20260509135341 | 61 | 117 | 3.5 | 7.8 | 0.00 | 0.00 | 0.00 | 66 | 1007.0 |
| 20260509134838 | 62 | 110 | 3.5 | 4.3 | 0.00 | 0.00 | 0.00 | 67 | 1007.0 |
| 20260509134335 | 61 | 134 | 3.5 | 3.5 | 0.00 | 0.00 | 0.00 | 67 | 1007.0 |
| 20260509133831 | 61 | 113 | 3.5 | 4.3 | 0.00 | 0.00 | 0.00 | 66 | 1007.0 |
| 20260509133328 | 60 | 105 | 2.6 | 4.3 | 0.00 | 0.00 | 0.00 | 69 | 1007.0 |
| 20260509132827 | 60 | 168 | 1.7 | 4.3 | 0.00 | 0.00 | 0.00 | 69 | 1007.0 |
| 20260509132325 | 59 | 158 | 2.6 | 3.5 | 0.00 | 0.00 | 0.00 | 71 | 1007.2 |
| 20260509131822 | 58 | 119 | 3.5 | 4.3 | 0.00 | 0.00 | 0.00 | 74 | 1007.1 |
| 20260509131319 | 57 | 118 | 1.7 | 3.5 | 0.00 | 0.00 | 0.00 | 72 | 1007.1 |
| 20260509130815 | 57 | 116 | 1.7 | 2.6 | 0.00 | 0.00 | 0.00 | 72 | 1007.3 |
| 20260509130311 | 56 | 110 | 2.6 | 3.5 | 0.00 | 0.00 | 0.00 | 74 | 1007.2 |
| 20260509125808 | 55 | 119 | 1.7 | 2.6 | 0.00 | 0.00 | 0.00 | 75 | 1007.4 |
| 20260509125307 | 55 | 94 | 1.7 | 2.6 | 0.00 | 0.00 | 0.00 | 76 | 1007.4 |
| 20260509124801 | 54 | 123 | 3.5 | 3.5 | 0.00 | 0.00 | 0.00 | 75 | 1007.1 |
| 20260509124257 | 54 | 133 | 1.7 | 3.5 | 0.00 | 0.00 | 0.00 | 75 | 1007.4 |
| 20260509123755 | 53 | 107 | 1.7 | 4.3 | 0.00 | 0.00 | 0.00 | 75 | 1007.4 |
| 20260509123252 | 53 | 136 | 1.7 | 3.5 | 0.00 | 0.00 | 0.00 | 74 | 1007.4 |
| 20260509122748 | 53 | 111 | 3.5 | 5.2 | 0.00 | 0.00 | 0.00 | 74 | 1007.6 |
| 20260509122245 | 52 | 115 | 3.5 | 3.5 | 0.00 | 0.00 | 0.00 | 76 | 1007.7 |
| 20260509121742 | 52 | 127 | 3.5 | 4.3 | 0.00 | 0.00 | 0.00 | 77 | 1007.7 |
| 20260509121239 | 51 | 120 | 2.6 | 4.3 | 0.00 | 0.00 | 0.00 | 79 | 1007.7 |
| 20260509120737 | 50 | 104 | 1.7 | 2.6 | 0.00 | 0.00 | 0.00 | 80 | 1007.6 |
| 20260509120235 | 50 | 103 | 2.6 | 2.6 | 0.00 | 0.00 | 0.00 | 80 | 1007.5 |
| 20260509115733 | 49 | 103 | 1.7 | 2.6 | 0.00 | 0.00 | 0.00 | 80 | 1007.5 |
| 20260509115229 | 49 | 120 | 1.7 | 2.6 | 0.00 | 0.00 | 0.00 | 82 | 1007.7 |
| 20260509114728 | 48 | 117 | 1.7 | 3.5 | 0.00 | 0.00 | 0.00 | 81 | 1007.5 |
| 20260509114226 | 48 | 118 | 2.6 | 2.6 | 0.00 | 0.00 | 0.00 | 81 | 1007.4 |
| 20260509113725 | 48 | 122 | 1.7 | 2.6 | 0.00 | 0.00 | 0.00 | 81 | 1007.5 |
| 20260509113221 | 47 | 113 | 1.7 | 2.6 | 0.00 | 0.00 | 0.00 | 81 | 1007.7 |
| 20260509112718 | 47 | 105 | 1.7 | 2.6 | 0.00 | 0.00 | 0.00 | 81 | 1007.7 |
| 20260509112215 | 47 | 113 | 2.6 | 2.6 | 0.00 | 0.00 | 0.00 | 82 | 1007.8 |
| 20260509111712 | 46 | 105 | 1.7 | 2.6 | 0.00 | 0.00 | 0.00 | 83 | 1007.7 |
| 20260509111209 | 46 | 111 | 2.6 | 2.6 | 0.00 | 0.00 | 0.00 | 83 | 1007.8 |
| 20260509110707 | 45 | 113 | 1.7 | 3.5 | 0.00 | 0.00 | 0.00 | 83 | 1007.9 |
| 20260509110203 | 44 | 111 | 2.6 | 2.6 | 0.00 | 0.00 | 0.00 | 82 | 1008.0 |
| 20260509105701 | 44 | 105 | 1.7 | 2.6 | 0.00 | 0.00 | 0.00 | 82 | 1007.6 |
| 20260509105158 | 44 | 120 | 1.7 | 3.5 | 0.00 | 0.00 | 0.00 | 81 | 1007.6 |
| 20260509104655 | 44 | 124 | 2.6 | 2.6 | 0.00 | 0.00 | 0.00 | 81 | 1007.6 |
| 20260509104152 | 44 | 118 | 2.6 | 3.5 | 0.00 | 0.00 | 0.00 | 81 | 1007.6 |
| 20260509103650 | 44 | 127 | 2.6 | 3.5 | 0.00 | 0.00 | 0.00 | 81 | 1007.7 |
| 20260509103147 | 43 | 128 | 1.7 | 3.5 | 0.00 | 0.00 | 0.00 | 81 | 1007.6 |
| 20260509102645 | 43 | 137 | 2.6 | 2.6 | 0.00 | 0.00 | 0.00 | 81 | 1007.5 |
| 20260509102142 | 43 | 141 | 2.6 | 3.5 | 0.00 | 0.00 | 0.00 | 81 | 1007.5 |
| 20260509101638 | 43 | 111 | 1.7 | 3.5 | 0.00 | 0.00 | 0.00 | 80 | 1007.5 |
| 20260509101135 | 42 | 125 | 2.6 | 3.5 | 0.00 | 0.00 | 0.00 | 79 | 1007.4 |
| 20260509100632 | 42 | 114 | 1.7 | 2.6 | 0.00 | 0.00 | 0.00 | 80 | 1007.3 |
| 20260509100130 | 42 | 133 | 2.6 | 3.5 | 0.00 | 0.00 | 0.00 | 79 | 1007.3 |
| 20260509095626 | 42 | 131 | 2.6 | 3.5 | 0.00 | 0.00 | 0.00 | 78 | 1007.5 |
| 20260509095123 | 42 | 137 | 2.6 | 3.5 | 0.00 | 0.00 | 0.00 | 77 | 1007.6 |
| 20260509094619 | 41 | 121 | 2.6 | 3.5 | 0.00 | 0.00 | 0.00 | 77 | 1007.5 |
| 20260509094117 | 41 | 136 | 3.5 | 3.5 | 0.00 | 0.00 | 0.00 | 76 | 1007.5 |
| 20260509093615 | 42 | 129 | 2.6 | 3.5 | 0.00 | 0.00 | 0.00 | 76 | 1007.7 |
| 20260509093112 | 42 | 123 | 2.6 | 2.6 | 0.00 | 0.00 | 0.00 | 76 | 1007.5 |
| 20260509092610 | 42 | 123 | 2.6 | 2.6 | 0.00 | 0.00 | 0.00 | 74 | 1007.5 |
| 20260509092108 | 42 | 114 | 1.7 | 2.6 | 0.00 | 0.00 | 0.00 | 73 | 1007.4 |
| 20260509091606 | 42 | 125 | 2.6 | 3.5 | 0.00 | 0.00 | 0.00 | 73 | 1007.5 |
| 20260509091101 | 42 | 139 | 2.6 | 3.5 | 0.00 | 0.00 | 0.00 | 73 | 1007.5 |
| 20260509090559 | 42 | 128 | 2.6 | 3.5 | 0.00 | 0.00 | 0.00 | 73 | 1007.4 |
| 20260509090057 | 42 | 135 | 2.6 | 3.5 | 0.00 | 0.00 | 0.00 | 73 | 1007.6 |
| 20260509085554 | 42 | 139 | 1.7 | 3.5 | 0.00 | 0.00 | 0.00 | 73 | 1007.5 |
| 20260509085050 | 42 | 148 | 2.6 | 3.5 | 0.00 | 0.00 | 0.00 | 73 | 1007.5 |
| 20260509084547 | 42 | 130 | 3.5 | 3.5 | 0.00 | 0.00 | 0.00 | 74 | 1007.7 |
| 20260509084044 | 42 | 155 | 1.7 | 3.5 | 0.00 | 0.00 | 0.00 | 74 | 1007.5 |
| 20260509083542 | 42 | 137 | 3.5 | 3.5 | 0.00 | 0.00 | 0.00 | 75 | 1007.8 |
| 20260509083038 | 42 | 126 | 2.6 | 3.5 | 0.00 | 0.00 | 0.00 | 75 | 1007.6 |
| 20260509082536 | 42 | 104 | 1.7 | 2.6 | 0.00 | 0.00 | 0.00 | 76 | 1007.6 |
| 20260509082033 | 42 | 98 | 1.7 | 2.6 | 0.00 | 0.00 | 0.00 | 75 | 1007.7 |
| 20260509081530 | 42 | 97 | 2.6 | 3.5 | 0.00 | 0.00 | 0.00 | 74 | 1007.7 |
| 20260509081026 | 43 | 135 | 2.6 | 3.5 | 0.00 | 0.00 | 0.00 | 73 | 1007.8 |
| 20260509080525 | 43 | 139 | 2.6 | 3.5 | 0.00 | 0.00 | 0.00 | 72 | 1007.9 |
| 20260509080022 | 43 | 148 | 1.7 | 3.5 | 0.00 | 0.00 | 0.00 | 71 | 1007.9 |
| 20260509075519 | 43 | 126 | 2.6 | 2.6 | 0.00 | 0.00 | 0.00 | 70 | 1008.0 |
| 20260509075017 | 43 | 118 | 1.7 | 3.5 | 0.00 | 0.00 | 0.00 | 71 | 1008.1 |
| 20260509074514 | 43 | 146 | 1.7 | 3.5 | 0.00 | 0.00 | 0.00 | 71 | 1008.1 |
| 20260509074010 | 42 | 115 | 2.6 | 3.5 | 0.00 | 0.00 | 0.00 | 70 | 1008.0 |
| 20260509073507 | 42 | 140 | 1.7 | 3.5 | 0.00 | 0.00 | 0.00 | 71 | 1008.0 |
| 20260509073003 | 42 | 150 | 2.6 | 3.5 | 0.00 | 0.00 | 0.00 | 71 | 1008.1 |
| 20260509072500 | 41 | 141 | 2.6 | 3.5 | 0.00 | 0.00 | 0.00 | 72 | 1008.3 |
| 20260509071957 | 41 | 143 | 2.6 | 3.5 | 0.00 | 0.00 | 0.00 | 74 | 1008.3 |
| 20260509071453 | 41 | 116 | 2.6 | 3.5 | 0.00 | 0.00 | 0.00 | 75 | 1008.3 |
| 20260509070952 | 41 | 108 | 1.7 | 3.5 | 0.00 | 0.00 | 0.00 | 75 | 1008.3 |
| 20260509070448 | 41 | 118 | 2.6 | 3.5 | 0.00 | 0.00 | 0.00 | 75 | 1008.4 |
| 20260509065943 | 41 | 117 | 2.6 | 2.6 | 0.00 | 0.00 | 0.00 | 74 | 1008.4 |
| 20260509065440 | 42 | 112 | 1.7 | 2.6 | 0.00 | 0.00 | 0.00 | 74 | 1008.5 |
| 20260509064936 | 42 | 108 | 1.7 | 2.6 | 0.00 | 0.00 | 0.00 | 74 | 1008.7 |
| 20260509064435 | 42 | 126 | 2.6 | 3.5 | 0.00 | 0.00 | 0.00 | 71 | 1008.7 |
| 20260509063933 | 42 | 144 | 2.6 | 3.5 | 0.00 | 0.00 | 0.00 | 71 | 1008.6 |
| 20260509063432 | 42 | 130 | 2.6 | 3.5 | 0.00 | 0.00 | 0.00 | 72 | 1008.8 |
| 20260509062930 | 42 | 143 | 3.5 | 3.5 | 0.00 | 0.00 | 0.00 | 73 | 1008.9 |
| 20260509062427 | 42 | 134 | 2.6 | 3.5 | 0.00 | 0.00 | 0.00 | 73 | 1008.7 |
| 20260509061925 | 42 | 141 | 3.5 | 3.5 | 0.00 | 0.00 | 0.00 | 74 | 1008.9 |
| 20260509061422 | 42 | 136 | 2.6 | 3.5 | 0.00 | 0.00 | 0.00 | 75 | 1008.9 |
| 20260509060919 | 42 | 137 | 2.6 | 3.5 | 0.00 | 0.00 | 0.00 | 76 | 1009.2 |
| 20260509060416 | 42 | 121 | 2.6 | 4.3 | 0.00 | 0.00 | 0.00 | 77 | 1009.3 |
| 20260509055911 | 41 | 128 | 3.5 | 4.3 | 0.00 | 0.00 | 0.00 | 77 | 1009.2 |
| 20260509055407 | 41 | 134 | 3.5 | 3.5 | 0.00 | 0.00 | 0.00 | 77 | 1009.2 |
| 20260509054904 | 41 | 133 | 2.6 | 3.5 | 0.00 | 0.00 | 0.00 | 77 | 1009.2 |
| 20260509054401 | 41 | 145 | 3.5 | 3.5 | 0.00 | 0.00 | 0.00 | 78 | 1009.2 |
| 20260509053859 | 41 | 130 | 3.5 | 3.5 | 0.00 | 0.00 | 0.00 | 79 | 1009.2 |
| 20260509053356 | 42 | 136 | 2.6 | 3.5 | 0.00 | 0.00 | 0.00 | 79 | 1009.5 |
| 20260509052854 | 42 | 114 | 1.7 | 2.6 | 0.00 | 0.00 | 0.00 | 79 | 1009.5 |
| 20260509052351 | 42 | 112 | 1.7 | 3.5 | 0.00 | 0.00 | 0.00 | 78 | 1009.7 |
| 20260509051849 | 42 | 131 | 3.5 | 3.5 | 0.00 | 0.00 | 0.00 | 77 | 1009.7 |
| 20260509051347 | 42 | 144 | 2.6 | 3.5 | 0.00 | 0.00 | 0.00 | 76 | 1009.6 |
| 20260509050843 | 42 | 134 | 2.6 | 3.5 | 0.00 | 0.00 | 0.00 | 76 | 1009.7 |
| 20260509050340 | 42 | 132 | 3.5 | 3.5 | 0.00 | 0.00 | 0.00 | 77 | 1009.8 |
| 20260509045837 | 42 | 126 | 3.5 | 3.5 | 0.00 | 0.00 | 0.00 | 77 | 1009.9 |
| 20260509045334 | 42 | 124 | 2.6 | 3.5 | 0.00 | 0.00 | 0.00 | 79 | 1010.0 |
| 20260509044831 | 42 | 119 | 2.6 | 2.6 | 0.00 | 0.00 | 0.00 | 80 | 1009.9 |
| 20260509044329 | 42 | 123 | 3.5 | 3.5 | 0.00 | 0.00 | 0.00 | 79 | 1010.0 |
| 20260509043825 | 42 | 134 | 3.5 | 3.5 | 0.00 | 0.00 | 0.00 | 78 | 1010.0 |
| 20260509043321 | 42 | 134 | 3.5 | 3.5 | 0.00 | 0.00 | 0.00 | 78 | 1010.1 |
| 20260509042817 | 42 | 123 | 2.6 | 3.5 | 0.00 | 0.00 | 0.00 | 78 | 1010.1 |
| 20260509042314 | 42 | 146 | 2.6 | 3.5 | 0.00 | 0.00 | 0.00 | 79 | 1010.1 |
| 20260509041810 | 42 | 135 | 1.7 | 3.5 | 0.00 | 0.00 | 0.00 | 80 | 1010.3 |
| 20260509041308 | 42 | 124 | 2.6 | 3.5 | 0.00 | 0.00 | 0.00 | 82 | 1010.2 |
| 20260509040806 | 42 | 141 | 2.6 | 3.5 | 0.00 | 0.00 | 0.00 | 82 | 1010.1 |
| 20260509040303 | 42 | 131 | 2.6 | 3.5 | 0.00 | 0.00 | 0.00 | 83 | 1010.4 |
| 20260509035800 | 42 | 129 | 2.6 | 3.5 | 0.00 | 0.04 | 0.04 | 82 | 1010.3 |
| 20260509035256 | 42 | 139 | 3.5 | 3.5 | 0.00 | 0.04 | 0.04 | 81 | 1010.3 |
| 20260509034753 | 43 | 136 | 2.6 | 3.5 | 0.00 | 0.04 | 0.04 | 80 | 1010.2 |
| 20260509034251 | 43 | 129 | 2.6 | 3.5 | 0.00 | 0.04 | 0.04 | 79 | 1010.3 |
| 20260509033748 | 43 | 144 | 2.6 | 3.5 | 0.00 | 0.04 | 0.04 | 78 | 1010.4 |
| 20260509033245 | 43 | 142 | 2.6 | 3.5 | 0.00 | 0.04 | 0.04 | 77 | 1010.3 |
| 20260509032741 | 43 | 136 | 2.6 | 3.5 | 0.00 | 0.04 | 0.04 | 77 | 1010.4 |
| 20260509032238 | 44 | 126 | 2.6 | 3.5 | 0.00 | 0.04 | 0.04 | 76 | 1010.3 |
| 20260509031736 | 44 | 124 | 1.7 | 2.6 | 0.00 | 0.04 | 0.04 | 76 | 1010.4 |
| 20260509031233 | 44 | 123 | 2.6 | 3.5 | 0.00 | 0.04 | 0.04 | 75 | 1010.4 |
| 20260509030731 | 44 | 142 | 2.6 | 3.5 | 0.00 | 0.04 | 0.04 | 74 | 1010.4 |
| 20260509030229 | 44 | 130 | 3.5 | 3.5 | 0.00 | 0.04 | 0.04 | 75 | 1010.5 |
| 20260509025725 | 45 | 125 | 2.6 | 3.5 | 0.00 | 0.04 | 0.04 | 75 | 1010.6 |
| 20260509025221 | 45 | 118 | 1.7 | 3.5 | 0.00 | 0.04 | 0.04 | 73 | 1010.5 |
| 20260509024716 | 45 | 132 | 2.6 | 3.5 | 0.00 | 0.04 | 0.04 | 73 | 1010.5 |
| 20260509024212 | 45 | 145 | 3.5 | 3.5 | 0.00 | 0.04 | 0.04 | 73 | 1010.5 |
| 20260509023710 | 45 | 143 | 3.5 | 4.3 | 0.00 | 0.04 | 0.04 | 73 | 1010.4 |
| 20260509023207 | 46 | 151 | 1.7 | 3.5 | 0.00 | 0.04 | 0.04 | 72 | 1010.4 |
| 20260509022703 | 46 | 142 | 2.6 | 3.5 | 0.00 | 0.04 | 0.04 | 72 | 1010.4 |
| 20260509022201 | 46 | 159 | 1.7 | 3.5 | 0.00 | 0.04 | 0.04 | 72 | 1010.4 |
| 20260509021658 | 46 | 140 | 1.7 | 3.5 | 0.00 | 0.04 | 0.04 | 72 | 1010.5 |
| 20260509021155 | 46 | 141 | 2.6 | 3.5 | 0.00 | 0.04 | 0.04 | 72 | 1010.5 |
| 20260509020653 | 46 | 125 | 2.6 | 3.5 | 0.00 | 0.04 | 0.04 | 73 | 1010.5 |
| 20260509020150 | 46 | 118 | 3.5 | 3.5 | 0.00 | 0.04 | 0.04 | 73 | 1010.6 |
| 20260509015648 | 46 | 116 | 2.6 | 4.3 | 0.00 | 0.04 | 0.04 | 74 | 1010.6 |
| 20260509015146 | 46 | 109 | 2.6 | 3.5 | 0.00 | 0.04 | 0.04 | 74 | 1010.4 |
| 20260509014642 | 46 | 129 | 3.5 | 3.5 | 0.00 | 0.04 | 0.04 | 75 | 1010.5 |
| 20260509014138 | 46 | 117 | 1.7 | 3.5 | 0.00 | 0.04 | 0.04 | 75 | 1010.6 |
| 20260509013636 | 46 | 115 | 2.6 | 2.6 | 0.00 | 0.04 | 0.04 | 74 | 1010.7 |
| 20260509013131 | 47 | 130 | 2.6 | 3.5 | 0.00 | 0.04 | 0.04 | 73 | 1010.6 |
| 20260509012628 | 47 | 128 | 2.6 | 3.5 | 0.00 | 0.04 | 0.04 | 73 | 1010.6 |
| 20260509012125 | 47 | 125 | 3.5 | 3.5 | 0.00 | 0.04 | 0.04 | 72 | 1010.5 |
| 20260509011623 | 48 | 112 | 2.6 | 4.3 | 0.00 | 0.04 | 0.04 | 70 | 1010.6 |
| 20260509011120 | 48 | 126 | 1.7 | 2.6 | 0.00 | 0.04 | 0.04 | 68 | 1010.5 |
| 20260509010617 | 49 | 112 | 1.7 | 3.5 | 0.00 | 0.04 | 0.04 | 67 | 1010.5 |
| 20260509010114 | 49 | 138 | 3.5 | 4.3 | 0.00 | 0.04 | 0.04 | 65 | 1010.1 |
| 20260509005612 | 49 | 117 | 3.5 | 4.3 | 0.00 | 0.04 | 0.04 | 64 | 1010.3 |
| 20260509005107 | 50 | 133 | 2.6 | 3.5 | 0.00 | 0.04 | 0.04 | 64 | 1010.3 |
| 20260509004604 | 50 | 136 | 3.5 | 3.5 | 0.00 | 0.04 | 0.04 | 61 | 1010.0 |
| 20260509004101 | 50 | 120 | 2.6 | 3.5 | 0.00 | 0.04 | 0.04 | 61 | 1009.9 |
| 20260509003559 | 51 | 117 | 3.5 | 3.5 | 0.00 | 0.04 | 0.04 | 60 | 1010.0 |
| 20260509003056 | 51 | 129 | 3.5 | 3.5 | 0.00 | 0.04 | 0.04 | 59 | 1009.9 |
| 20260509002554 | 51 | 122 | 2.6 | 3.5 | 0.00 | 0.04 | 0.04 | 58 | 1009.8 |
| 20260509002051 | 52 | 123 | 3.5 | 3.5 | 0.00 | 0.04 | 0.04 | 56 | 1009.7 |
| 20260509001548 | 53 | 112 | 2.6 | 4.3 | 0.00 | 0.04 | 0.04 | 55 | 1009.7 |
| 20260509001044 | 53 | 139 | 2.6 | 5.2 | 0.00 | 0.04 | 0.04 | 53 | 1009.8 |
| 20260509000542 | 54 | 115 | 1.7 | 5.2 | 0.00 | 0.04 | 0.04 | 52 | 1009.7 |
| 20260509000038 | 54 | 119 | 2.6 | 4.3 | 0.00 | 0.04 | 0.04 | 52 | 1009.8 |
| 20260508235536 | 54 | 112 | 2.6 | 4.3 | 0.00 | 0.04 | 0.04 | 51 | 1009.9 |
| 20260508235032 | 54 | 124 | 2.6 | 3.5 | 0.00 | 0.04 | 0.04 | 52 | 1009.9 |
| 20260508234530 | 54 | 125 | 2.6 | 4.3 | 0.00 | 0.04 | 0.04 | 54 | 1009.9 |
| 20260508234027 | 53 | 128 | 4.3 | 4.3 | 0.00 | 0.04 | 0.04 | 57 | 1009.8 |
| 20260508233526 | 53 | 103 | 6.1 | 7.0 | 0.00 | 0.04 | 0.04 | 62 | 1009.6 |
| 20260508233023 | 52 | 116 | 3.5 | 7.0 | 0.00 | 0.04 | 0.04 | 57 | 1009.7 |
| 20260508232520 | 52 | 112 | 3.5 | 5.2 | 0.00 | 0.04 | 0.04 | 59 | 1009.6 |
| 20260508232017 | 52 | 107 | 6.1 | 9.6 | 0.00 | 0.04 | 0.04 | 60 | 1009.8 |
| 20260508231514 | 51 | 117 | 1.7 | 3.5 | 0.00 | 0.04 | 0.04 | 62 | 1009.6 |
| 20260508231011 | 51 | 108 | 2.6 | 7.0 | 0.00 | 0.04 | 0.04 | 64 | 1009.8 |
| 20260508230508 | 51 | 109 | 3.5 | 3.5 | 0.00 | 0.04 | 0.04 | 56 | 1009.6 |
| 20260508230004 | 50 | 114 | 2.6 | 4.3 | 0.00 | 0.04 | 0.04 | 58 | 1009.7 |
| 20260508225502 | 50 | 139 | 3.5 | 4.3 | 0.00 | 0.04 | 0.04 | 70 | 1009.7 |
| 20260508224958 | 50 | 103 | 5.2 | 10.4 | 0.00 | 0.04 | 0.04 | 74 | 1009.7 |